Location: Most
(50.5133°N, 13.6207°E)
Time: 22:06:21
(UTC+02:00)

ISS - Pass Details

Date: 21 September 2024
Orbit: 412 x 424 km, 51.6° (Epoch: 09 October)

Event Time Altitude Azimuth Distance (km) Brightness Sun altitude
Rises 19:41:03 0° 267° (W) 2,366 2.2 -6.5°
Reaches altitude 10° 19:43:08 10° 270° (W) 1,506 0.8 -6.9°
Maximum altitude 19:46:31 72° 355° (N) 448 -3.6 -7.4°
Drops below altitude 10° 19:49:55 10° 81° (E) 1,519 -1.5 -7.9°
Enters shadow 19:50:00 10° 81° (E) 1,550 -1.5 -7.9°
